Location: Stigler
(35.2540°N, 95.1230°W)
Time: 04:30:52
(UTC-06:00)

NOSS 3-3 (C) - Pass Details

Date: 26 September 2017
Orbit: 896 x 1317 km, 63.4° (Epoch: 09 December)

Event Time Altitude Azimuth Distance (km) Brightness Sun altitude
Rises 20:46:42 0° 191° (S) 3,499 6.9 -20.2°
Reaches altitude 10° 20:49:14 10° 185° (S) 2,577 6.1 -20.7°
Maximum altitude 20:54:52 45° 114° (ESE) 1,252 4.1 -21.9°
Enters shadow 20:55:44 43° 91° (E) 1,309 4.2 -22.0°
